Anaktuvuk Pass, AK

3:46 PM AKST on December 16, 2017 (GMT -0900)
Anaktuvuk Pass

Weather History for PAKP - December, 2013

Change the Weather History Date:

Saturday, December 7, 2013

  Actual Average Record
Temperature  
Mean Temperature 32 °F -  
Max Temperature 39 °F -1 °F 39 °F (2013)
Min Temperature 24 °F -10 °F -29 °F (1999)
Degree Days  
Heating Degree Days 34    
Moisture  
Dew Point 23 °F    
Average Humidity 80    
Maximum Humidity 86    
Minimum Humidity 70    
Precipitation  
Precipitation 0.00 in - - ()
Sea Level Pressure  
Sea Level Pressure 29.99 in    
Wind  
Wind Speed 16 mph (SSW)    
Max Wind Speed 24 mph    
Max Gust Speed 33 mph    
Visibility 6 miles    
Events      
Averages and records for this station are not official NWS values.
T = Trace of Precipitation, MM = Missing Value Source: NWS Daily Summary

Daily Weather History Graph

Daily Weather History Graph

Search for Another Location

Airport or City:

Trip Planner

Search our weather history database for the weather conditions in past years. The results will help you decide how hot, cold, wet, or windy it might be!

Date:

Astronomy

Dec. 07, 2013 Rise Set
Actual Time 12:52 PM AKST 1:04 PM AKST
Civil Twilight 10:08 AM AKST 3:48 PM AKST
Nautical Twilight 8:42 AM AKST 5:14 PM AKST
Astronomical Twilight 7:31 AM AKST 6:25 PM AKST
Moon 1:11 PM AKST (12/7) 10:42 PM AKST (12/7)
Length of Visible Light 5h 39m
Length of Day
0h 12m
Waxing Crescent, 31% of the Moon is Illuminated
Dec 7
Waxing Crescent
Dec 9
First Quarter
Dec 17
Full
Dec 25
Last Quarter
Jan 1
New

Hourly Weather History & Observations

Time (AKST) Temp. Windchill Dew Point Humidity Pressure Visibility Wind Dir Wind Speed Gust Speed Precip Events Conditions
12:16 AM 24.8 °F 15.3 °F 19.4 °F 80% 30.09 in 10.0 mi SSW 9.2 mph - N/A   Overcast
12:36 AM 24.8 °F 12.9 °F 19.4 °F 80% 30.08 in 10.0 mi South 13.8 mph - N/A   Overcast
12:56 AM 24.8 °F 12.4 °F 19.4 °F 80% 30.08 in 10.0 mi SSW 15.0 mph 19.6 mph N/A   Overcast
1:16 AM 24.8 °F 11.1 °F 19.4 °F 80% 30.08 in 10.0 mi SSW 18.4 mph 21.9 mph N/A   Overcast
1:36 AM 24.8 °F 12.4 °F 19.4 °F 80% 30.08 in 10.0 mi SSW 15.0 mph - N/A   Overcast
1:56 AM 24.8 °F 12.9 °F 19.4 °F 80% 30.07 in 5.0 mi SSW 13.8 mph 20.7 mph N/A   Overcast
2:16 AM 24.8 °F 11.9 °F 21.2 °F 86% 30.08 in 7.0 mi South 16.1 mph 21.9 mph N/A   Overcast
2:36 AM 24.8 °F 10.7 °F 21.2 °F 86% 30.07 in 4.0 mi SSW 19.6 mph - N/A   Overcast
2:56 AM 24.8 °F 11.5 °F 19.4 °F 80% 30.07 in 2.5 mi South 17.3 mph - N/A   Overcast
3:16 AM 26.6 °F 14.7 °F 21.2 °F 80% 30.07 in 5.0 mi SSW 15.0 mph 18.4 mph N/A   Overcast
3:36 AM 26.6 °F 13.8 °F 21.2 °F 80% 30.07 in 8.0 mi SSE 17.3 mph 20.7 mph N/A   Overcast
3:56 AM 26.6 °F 14.7 °F 21.2 °F 80% 30.06 in 5.0 mi South 15.0 mph - N/A   Overcast
4:16 AM 26.6 °F 14.3 °F 21.2 °F 80% 30.06 in 5.0 mi South 16.1 mph 21.9 mph N/A   Overcast
4:36 AM 24.8 °F 10.0 °F 19.4 °F 80% 30.05 in 2.5 mi South 21.9 mph 26.5 mph N/A   Overcast
4:56 AM 26.6 °F 12.4 °F 21.2 °F 80% 30.04 in 1.2 mi SSE 21.9 mph 33.4 mph N/A   Overcast
5:16 AM 24.8 °F 9.6 °F 19.4 °F 80% 30.04 in 2.0 mi South 23.0 mph - N/A   Overcast
5:36 AM 24.8 °F 10.3 °F 21.2 °F 86% 30.04 in 2.0 mi South 20.7 mph 29.9 mph N/A   Overcast
5:56 AM 24.8 °F 12.4 °F 19.4 °F 80% 30.03 in 1.5 mi SSW 15.0 mph - N/A   Overcast
6:16 AM 24.8 °F 11.5 °F 19.4 °F 80% 30.03 in 1.2 mi South 17.3 mph 24.2 mph N/A   Overcast
6:36 AM 24.8 °F 11.1 °F 19.4 °F 80% 30.02 in 1.2 mi SSW 18.4 mph 26.5 mph N/A   Overcast
6:56 AM 24.8 °F 9.6 °F 19.4 °F 80% 30.02 in 1.0 mi SW 23.0 mph 28.8 mph N/A   Overcast
7:16 AM 24.8 °F 9.3 °F 19.4 °F 80% 30.02 in 1.0 mi SW 24.2 mph 29.9 mph N/A   Overcast
7:36 AM 24.8 °F 10.3 °F 19.4 °F 80% 30.02 in 1.0 mi SSW 20.7 mph 29.9 mph N/A   Overcast
7:56 AM 24.8 °F 9.3 °F 19.4 °F 80% 30.02 in 1.0 mi South 24.2 mph - N/A   Overcast
8:16 AM 24.8 °F 9.6 °F 21.2 °F 86% 30.03 in 1.0 mi South 23.0 mph - N/A   Overcast
8:36 AM 24.8 °F 11.1 °F 21.2 °F 86% 30.04 in 1.0 mi SSE 18.4 mph 29.9 mph N/A   Overcast
8:56 AM 24.8 °F 9.6 °F 21.2 °F 86% 30.03 in 0.8 mi South 23.0 mph 31.1 mph N/A   Overcast
9:16 AM 24.8 °F 9.3 °F 19.4 °F 80% 30.03 in 0.5 mi SSW 24.2 mph 31.1 mph N/A   Overcast
9:36 AM 24.8 °F 9.3 °F 19.4 °F 80% 30.04 in 1.0 mi South 24.2 mph 31.1 mph N/A   Overcast
9:56 AM 26.6 °F 13.1 °F 21.2 °F 80% 30.04 in 1.5 mi South 19.6 mph 28.8 mph N/A   Overcast
10:16 AM 24.8 °F 11.1 °F 19.4 °F 80% 30.03 in 1.5 mi SSW 18.4 mph 26.5 mph N/A   Overcast
10:36 AM 24.8 °F 10.7 °F 21.2 °F 86% 30.02 in 2.0 mi SSW 19.6 mph 27.6 mph N/A   Overcast
10:56 AM 26.6 °F 12.4 °F 23.0 °F 86% 30.03 in 5.0 mi SSW 21.9 mph 27.6 mph N/A   Overcast
11:16 AM 26.6 °F 13.8 °F 21.2 °F 80% 30.03 in 4.0 mi SW 17.3 mph - N/A   Overcast
11:36 AM 26.6 °F 13.4 °F 23.0 °F 86% 30.03 in 5.0 mi SW 18.4 mph 26.5 mph N/A   Overcast
11:56 AM 28.4 °F 17.0 °F 23.0 °F 80% 30.03 in 8.0 mi SW 15.0 mph - N/A   Overcast
12:16 PM 26.6 °F 14.7 °F 21.2 °F 80% 30.04 in 5.0 mi South 15.0 mph 24.2 mph N/A   Overcast
12:36 PM 26.6 °F 20.0 °F 21.2 °F 80% 30.04 in 7.0 mi East 5.8 mph - N/A   Mostly Cloudy
12:56 PM 26.6 °F 19.1 °F 21.2 °F 80% 30.03 in 9.0 mi SE 6.9 mph - N/A   Overcast
1:16 PM 28.4 °F 21.2 °F 21.2 °F 74% 30.04 in 10.0 mi SE 6.9 mph - N/A   Overcast
1:36 PM 28.4 °F 23.3 °F 23.0 °F 80% 30.02 in 10.0 mi SSE 4.6 mph - N/A   Overcast
1:56 PM 28.4 °F - 24.8 °F 86% 30.01 in 10.0 mi Calm Calm - N/A   Overcast
2:16 PM 28.4 °F - 24.8 °F 86% 30.00 in 10.0 mi Calm Calm - N/A   Overcast
2:36 PM 26.6 °F 15.7 °F 21.2 °F 80% 29.99 in 10.0 mi SSW 12.7 mph 18.4 mph N/A   Overcast
2:56 PM 26.6 °F 14.3 °F 21.2 °F 80% 29.98 in 10.0 mi South 16.1 mph - N/A   Mostly Cloudy
3:16 PM 28.4 °F 17.5 °F 23.0 °F 80% 29.96 in 9.0 mi SSW 13.8 mph 24.2 mph N/A   Overcast
3:36 PM 28.4 °F 16.6 °F 21.2 °F 74% 29.94 in 6.0 mi SSW 16.1 mph 25.3 mph N/A   Scattered Clouds
3:56 PM 28.4 °F 14.1 °F 23.0 °F 80% 29.92 in 7.0 mi SSW 24.2 mph 27.6 mph N/A   Partly Cloudy
4:16 PM 28.4 °F 16.2 °F 24.8 °F 86% 29.92 in 9.0 mi SSW 17.3 mph 26.5 mph N/A   Mostly Cloudy
4:36 PM 30.2 °F 19.3 °F 24.8 °F 80% 29.92 in 10.0 mi SW 15.0 mph 25.3 mph N/A   Overcast
4:56 PM 32.0 °F 19.8 °F 26.6 °F 80% 29.91 in 10.0 mi South 20.7 mph 26.5 mph N/A   Overcast
5:16 PM 30.2 °F 18.5 °F 26.6 °F 86% 29.91 in 10.0 mi SSW 17.3 mph - N/A   Overcast
5:36 PM 32.0 °F 19.5 °F 26.6 °F 80% 29.88 in 10.0 mi South 21.9 mph - N/A   Overcast
5:56 PM 35.6 °F 24.8 °F 30.2 °F 81% 29.88 in 10.0 mi SSW 19.6 mph 26.5 mph N/A   Overcast
6:16 PM 33.8 °F 22.2 °F 28.4 °F 81% 29.88 in 10.0 mi South 20.7 mph 26.5 mph N/A   Overcast
6:36 PM 33.8 °F 22.5 °F 28.4 °F 81% 29.88 in 10.0 mi South 19.6 mph 26.5 mph N/A   Overcast
6:56 PM 35.6 °F 26.6 °F 28.4 °F 75% 29.88 in 10.0 mi SSW 13.8 mph 23.0 mph N/A   Overcast
7:16 PM 39.2 °F 30.8 °F 30.2 °F 70% 29.89 in 10.0 mi SW 15.0 mph 23.0 mph N/A   Overcast
7:36 PM 35.6 °F 25.2 °F 28.4 °F 75% 29.88 in 10.0 mi SSW 18.4 mph 24.2 mph N/A   Overcast
7:56 PM 35.6 °F 23.7 °F 28.4 °F 75% 29.89 in 10.0 mi South 24.2 mph 29.9 mph N/A   Overcast
8:16 PM 33.8 °F 22.8 °F 28.4 °F 81% 29.89 in 10.0 mi SSW 18.4 mph 24.2 mph N/A   Mostly Cloudy
8:36 PM 35.6 °F 26.6 °F 28.4 °F 75% 29.90 in 10.0 mi SW 13.8 mph 25.3 mph N/A   Overcast
8:56 PM 35.6 °F 25.9 °F 28.4 °F 75% 29.90 in 10.0 mi SSW 16.1 mph 23.0 mph N/A   Overcast
9:16 PM 35.6 °F 27.1 °F 28.4 °F 75% 29.90 in 10.0 mi SSW 12.7 mph - N/A   Overcast
9:36 PM 33.8 °F 23.9 °F 28.4 °F 81% 29.92 in 10.0 mi SSW 15.0 mph 18.4 mph N/A   Mostly Cloudy
9:56 PM 33.8 °F 24.8 °F 28.4 °F 81% 29.92 in 10.0 mi SSW 12.7 mph 18.4 mph N/A   Overcast
10:16 PM 35.6 °F 28.6 °F 28.4 °F 75% 29.92 in 10.0 mi WSW 9.2 mph - N/A   Overcast
10:36 PM 37.4 °F 30.3 °F 28.4 °F 70% 29.94 in 10.0 mi WSW 10.4 mph 16.1 mph N/A   Overcast
10:56 PM 35.6 °F 27.5 °F 26.6 °F 70% 29.96 in 10.0 mi East 11.5 mph 16.1 mph N/A   Mostly Cloudy
11:16 PM 30.2 °F 19.3 °F 24.8 °F 80% 29.98 in 9.0 mi ENE 15.0 mph 25.3 mph N/A   Overcast
11:36 PM 28.4 °F 17.0 °F 24.8 °F 86% 29.99 in 2.5 mi NE 15.0 mph 21.9 mph N/A   Overcast
11:56 PM 28.4 °F 15.8 °F 23.0 °F 80% 30.00 in 1.2 mi NE 18.4 mph - N/A   Overcast